Bellingham, Washington, United States (98225)
Lat: 48.76N, Lon: 122.49W
Wx Zone: WAZ503
Local Info
Past Weather Observations for Sunday, November 23, 2014

NOTE: This archive is for the closest National Weather Service station to Bellingham. Information may differ from the station used for current weather conditions.

Click here for Long-term Archive

Time Weather Temperature Dewpoint Humidity Pressure Winds Precip Visibility
23:53
Clear
41°F / 5°C 37°F / 3°C 87% 30.33 in
(1027 mb)
SSE 4.6 mph
(SSE 7 kph)
- 10SM
22:53
Clear
41°F / 5°C 37°F / 3°C 87% 30.3 in
(1026 mb)
S 4.6 mph
(S 7 kph)
- 10SM
21:53
Clear
43°F / 6°C 37°F / 3°C 81% 30.27 in
(1025 mb)
SE 4.6 mph
(SE 7 kph)
- 10SM
20:53
Clear
39°F / 4°C 36°F / 2°C 87% 30.27 in
(1025 mb)
SE 3.5 mph
(SE 6 kph)
- 10SM
19:53
Clear
43°F / 6°C 37°F / 3°C 81% 30.24 in
(1024 mb)
SSE 4.6 mph
(SSE 7 kph)
- 10SM
18:53
Clear
46°F / 8°C 39°F / 4°C 76% 30.21 in
(1023 mb)
S 5.8 mph
(S 9 kph)
- 10SM
17:53
Clear
43°F / 6°C 37°F / 3°C 81% 30.21 in
(1023 mb)
S 4.6 mph
(S 7 kph)
- 10SM
16:53
Clear
48°F / 9°C 37°F / 3°C 66% 30.18 in
(1022 mb)
Variable 4.6 mph
(Variable 7 kph)
- 10SM
15:53
Clear
52°F / 11°C 37°F / 3°C 58% 30.15 in
(1021 mb)
Calm - 10SM
14:53
Clear
54°F / 12°C 37°F / 3°C 54% 30.12 in
(1020 mb)
Variable 6.9 mph
(Variable 11 kph)
- 10SM
13:53
Mostly Cloudy
54°F / 12°C 37°F / 3°C 54% 30.12 in
(1020 mb)
Variable 6.9 mph
(Variable 11 kph)
- 10SM
12:53
Clear
54°F / 12°C 39°F / 4°C 58% 30.09 in
(1019 mb)
Variable 5.8 mph
(Variable 9 kph)
- 10SM
11:53
Clear
54°F / 12°C 39°F / 4°C 58% 30.06 in
(1018 mb)
SSE 8.1 mph
(SSE 13 kph)
0.00 in
(0.00 mm)
10SM
10:53
Overcast
Light Rain
50°F / 10°C 43°F / 6°C 76% 30.06 in
(1018 mb)
Variable 6.9 mph
(Variable 11 kph)
0.00 in
(0.00 mm)
10SM
09:53
Mostly Cloudy
48°F / 9°C 43°F / 6°C 82% 30.04 in
(1017 mb)
S 11.5 mph
(S 19 kph)
- 10SM
08:53
Overcast
48°F / 9°C 43°F / 6°C 82% 30.01 in
(1016 mb)
S 13.8 mph
(S 22 kph)
0.01 in
(0.25 mm)
10SM
07:53
Overcast
48°F / 9°C 45°F / 7°C 87% 29.98 in
(1015 mb)
SSE 19.6 mph
(SSE 32 kph)
0.00 in
(0.00 mm)
10SM
07:31
Mostly Cloudy
48°F / 9°C 43°F / 6°C 82% 29.98 in
(1015 mb)
SSE 19.6 mph
(SSE 32 kph)
0.00 in
(0.00 mm)
10SM
06:53
Overcast
48°F / 9°C 43°F / 6°C 82% 29.98 in
(1015 mb)
SSE 18.4 mph
(SSE 30 kph)
0.04 in
(1.02 mm)
7SM
05:53
Overcast
Light Rain
48°F / 9°C 43°F / 6°C 82% 29.98 in
(1015 mb)
SSE 18.4 mph
(SSE 30 kph)
0.03 in
(0.76 mm)
8SM
04:53
Overcast
Light Rain
46°F / 8°C 43°F / 6°C 87% 29.98 in
(1015 mb)
SSE 16.1 mph
(SSE 26 kph)
0.00 in
(0.00 mm)
10SM
03:53
Overcast
Light Rain
46°F / 8°C 43°F / 6°C 87% 30.04 in
(1017 mb)
SE 13.8 mph
(SE 22 kph)
0.08 in
(2.03 mm)
7SM
03:30
Overcast
Light Rain
46°F / 8°C 43°F / 6°C 87% 30.06 in
(1018 mb)
SSE 17.3 mph
(SSE 28 kph)
0.06 in
(1.52 mm)
6SM
03:05
Overcast
Light Rain
46°F / 8°C 43°F / 6°C 87% 30.06 in
(1018 mb)
SSE 19.6 mph
(SSE 32 kph)
0.02 in
(0.51 mm)
7SM
02:53
Overcast
Light Rain
46°F / 8°C 43°F / 6°C 87% 30.06 in
(1018 mb)
SSE 11.5 mph
(SSE 19 kph)
0.05 in
(1.27 mm)
8SM
01:53
Overcast
Light Rain
46°F / 8°C 43°F / 6°C 87% 30.09 in
(1019 mb)
SSE 12.7 mph
(SSE 20 kph)
0.02 in
(0.51 mm)
10SM
00:53
Overcast
48°F / 9°C 43°F / 6°C 82% 30.09 in
(1019 mb)
SSE 8.1 mph
(SSE 13 kph)
0.00 in
(0.00 mm)
10SM
00:25
Overcast
Light Rain
48°F / 9°C 43°F / 6°C 82% 30.09 in
(1019 mb)
SSE 8.1 mph
(SSE 13 kph)
0.00 in
(0.00 mm)
10SM
Time Weather Temperature Dewpoint Humidity Pressure Winds Precip Visibility


Weather for websites

WeatherForYou.com, LLC is not responsible for any damages or problems caused by this service. Current weather conditions are obtained from the closest station including government and personal stations which may have varying degrees of accuracy. Weather forecasts are derived from the NOAA NDFD. Like all things, this site belongs to Jesus Christ... He just trusts me to maintain it. If you have any questions or comments email webmaster@weatherforyou.com

Copyright © 2014, WeatherForYou.com LLC. All rights reserved.